Weather in Igumenka

Russia / Tver Oblast     56°46′41″N   36°19′12″E
temp.,
°C
wind,
m/s
gust,
m/s
humid.,
%
clouds,
%
prec.,
mm/h
press.,
hPa
HPBL,
m
23 april, fri
fri2300:00+7sse4118711 0.0 1013253
03:00+6sse4119359 0.0 1012255
06:00+6sse412915 0.0 1011306
09:00+10ssw5117589 0.0 1011847
12:00+12s71671100 0.6 10101855
15:00+7wsw3688100 1.3 1012572
18:00+6ssw3690100 6.4 1012321
21:00+4sse3697100 6.8 1012183
24 april, sat
sat2400:00+4sse2395100 0.0 1011118
03:00+4se2496100 0.1 1009117
06:00+4sw2395100 0.8 1008126
09:00+5w2483100 1.6 1007615
12:00+7wnw3464100 0.1 10071131
15:00+8wnw4461100 0.7 10061209
18:00+7nw4670100 1.1 10071087
21:00+4nw41077100 1.4 1007399
25 april, sun
sun2500:00+2wnw51185100 0.0 1008464
03:000w4118386 0.0 1008348
06:000w511878 0.0 1008470
09:00+4w696548 0.0 10081229
12:00+7w6942100 0.0 10072457
15:00+8wsw7938100 0.0 10072414
18:00+7w574981 0.1 10081811
21:00+2wsw37705 0.1 1009149
26 april, mon
mon2600:000wsw38805 0.0 1009173
03:00−1sw38865 0.0 1010195
06:00−1sw39815 0.0 1010288
09:00+4sw46628 0.0 1009938
12:00+6wsw665590 0.1 10091625
15:00+6wsw565697 0.2 10101548
18:00+5sw465660 0.0 10091224
21:00+1sw38767 0.0 1009177
27 april, tue
tue2700:00−1wsw23835 0.0 101059
03:00−1wsw22835 0.0 100940
06:00−1wsw13775 0.0 1009121
09:00+4wsw34555 0.0 10081036
12:00+7wsw4539100 0.0 10072319
15:00+8wsw4533100 0.0 10072285
18:00+7w3546100 0.0 1007675
21:00+4wnw3866100 0.0 1008217